TimeHST,TemperatureF,Dew PointF,Humidity,Sea Level PressureIn,VisibilityMPH,Wind Direction,Wind SpeedMPH,Gust SpeedMPH,PrecipitationIn,Events,Conditions,WindDirDegrees,DateUTC
12:54 AM,71.1,62.1,73,29.96,10.0,SSW,9.2,-,N/A,,Clear,200,2013-03-16 10:54:00
1:54 AM,71.1,62.1,73,29.94,10.0,Calm,Calm,-,N/A,,Mostly Cloudy,0,2013-03-16 11:54:00
2:54 AM,70.0,66.0,87,29.94,10.0,North,15.0,-,N/A,,Overcast,360,2013-03-16 12:54:00
3:31 AM,68.0,64.4,88,29.92,10.0,North,12.7,-,N/A,,Mostly Cloudy,350,2013-03-16 13:31:00
3:54 AM,68.0,64.9,90,29.93,10.0,North,12.7,-,N/A,,Mostly Cloudy,350,2013-03-16 13:54:00
4:11 AM,68.0,64.4,88,29.92,10.0,North,13.8,21.9,N/A,,Mostly Cloudy,350,2013-03-16 14:11:00
4:40 AM,68.0,64.4,88,29.92,10.0,NNW,10.4,-,N/A,,Overcast,330,2013-03-16 14:40:00
4:54 AM,68.0,64.9,90,29.94,10.0,NNW,9.2,-,N/A,,Overcast,340,2013-03-16 14:54:00
5:54 AM,66.9,64.0,90,29.96,10.0,North,12.7,20.7,0.00,,Mostly Cloudy,350,2013-03-16 15:54:00
6:54 AM,68.0,62.1,81,29.98,10.0,NNW,10.4,-,N/A,,Overcast,340,2013-03-16 16:54:00
7:54 AM,70.0,62.1,76,30.00,10.0,NNW,8.1,-,N/A,,Overcast,330,2013-03-16 17:54:00
8:54 AM,70.0,62.1,76,30.02,10.0,NNW,11.5,-,N/A,,Overcast,330,2013-03-16 18:54:00
9:54 AM,72.0,61.0,68,30.03,10.0,NNW,11.5,-,N/A,,Overcast,330,2013-03-16 19:54:00
10:54 AM,75.0,60.1,60,30.01,10.0,NNW,12.7,-,N/A,,Mostly Cloudy,330,2013-03-16 20:54:00
11:54 AM,73.0,57.0,57,30.00,10.0,NNW,15.0,-,N/A,,Overcast,340,2013-03-16 21:54:00
12:54 PM,73.0,57.9,59,29.98,10.0,North,16.1,20.7,N/A,,Overcast,350,2013-03-16 22:54:00
1:54 PM,75.0,57.0,53,29.96,10.0,North,15.0,-,N/A,,Mostly Cloudy,350,2013-03-16 23:54:00
2:54 PM,75.0,59.0,57,29.95,10.0,North,16.1,-,N/A,,Scattered Clouds,350,2013-03-17 00:54:00
3:54 PM,75.0,59.0,57,29.95,10.0,North,12.7,-,N/A,,Mostly Cloudy,350,2013-03-17 01:54:00
4:54 PM,73.9,60.1,62,29.95,10.0,North,15.0,-,N/A,,Mostly Cloudy,350,2013-03-17 02:54:00
5:54 PM,72.0,59.0,64,29.98,10.0,North,10.4,-,N/A,,Mostly Cloudy,350,2013-03-17 03:54:00
6:54 PM,71.1,57.9,63,29.99,10.0,North,11.5,-,N/A,,Scattered Clouds,360,2013-03-17 04:54:00
7:54 PM,70.0,57.0,63,30.01,10.0,NNW,8.1,-,N/A,,Mostly Cloudy,340,2013-03-17 05:54:00
8:54 PM,70.0,57.9,65,30.03,10.0,NNW,6.9,-,N/A,,Partly Cloudy,340,2013-03-17 06:54:00
9:54 PM,70.0,57.0,63,30.04,10.0,North,8.1,-,N/A,,Scattered Clouds,350,2013-03-17 07:54:00
10:54 PM,69.1,57.9,68,30.04,10.0,NW,6.9,-,N/A,,Clear,320,2013-03-17 08:54:00
11:54 PM,69.1,59.0,70,30.01,10.0,Variable,6.9,-,N/A,,Mostly Cloudy,0,2013-03-17 09:54:00